FW9562 Weather Reports


time (UTC)temp
C
wind
direction
speed
KPH
gust
KPH
rain 1hr
cm
rain 24hr
cm
rain mn
cm
humidity
%
barometer
mb
20260508065018 10 85 1.6 4.8 0.00 0.00 0.00 99 1013.7
20260508064515 10 62 3.2 4.8 0.00 0.00 0.00 99 1013.6
20260508064012 10 50 1.6 4.8 0.05 0.00 0.00 99 1013.8
20260508063510 10 56 3.2 3.2 0.05 0.00 0.00 99 1013.7
20260508063007 10 69 3.2 3.2 0.00 0.00 0.00 99 1013.7
20260508062505 10 59 3.2 3.2 0.00 0.00 0.00 99 1013.6
20260508062001 10 76 3.2 3.2 0.00 0.00 0.00 99 1013.4
20260508061500 10 59 3.2 3.2 0.00 0.00 0.00 99 1013.6
20260508060955 10 57 3.2 4.8 0.00 0.00 0.00 99 1013.4
20260508060453 10 55 3.2 4.8 0.00 0.00 0.00 99 1013.4
20260508055949 10 55 3.2 3.2 0.00 0.00 0.00 99 1013.6
20260508055446 10 49 1.6 3.2 0.00 0.00 0.00 99 1013.6
20260508054942 11 56 1.6 3.2 0.00 0.00 0.00 99 1013.7
20260508054439 11 53 0.0 4.8 0.00 0.00 0.00 99 1013.7
20260508053936 11 352 0.0 1.6 0.00 0.00 0.00 99 1013.7
20260508053433 11 53 0.0 3.2 0.00 0.00 0.00 99 1013.6
20260508052931 11 53 0.0 3.2 0.00 0.00 0.00 99 1013.7
20260508052428 11 324 0.0 1.6 0.00 0.00 0.00 99 1013.5
20260508051924 11 302 0.0 1.6 0.00 0.00 0.00 99 1013.4
20260508051420 11 38 0.0 1.6 0.00 0.00 0.00 99 1013.4
20260508050916 11 304 0.0 1.6 0.00 0.00 0.00 99 1013.3
20260508050413 11 55 3.2 3.2 0.00 0.00 0.00 99 1013.6
20260508045909 11 320 1.6 3.2 0.00 0.00 0.00 99 1013.3
20260508045407 11 23 0.0 1.6 0.00 0.00 0.00 99 1013.6
20260508044905 11 58 1.6 3.2 0.00 0.00 0.00 99 1013.5
20260508044402 11 338 0.0 1.6 0.00 0.00 0.00 99 1013.3
20260508043857 11 78 1.6 3.2 0.00 0.00 0.00 99 1013.2
20260508043354 11 57 0.0 3.2 0.00 0.00 0.00 99 1013.1
20260508042850 11 16 0.0 1.6 0.00 0.00 0.00 99 1013.2
20260508042348 11 47 3.2 4.8 0.00 0.00 0.00 99 1013.2
20260508041845 11 79 1.6 3.2 0.00 0.00 0.00 99 1013.4
20260508041341 11 31 1.6 3.2 0.00 0.00 0.00 99 1013.1
20260508040838 11 52 1.6 3.2 0.00 0.00 0.00 99 1013.4
20260508040336 11 55 3.2 3.2 0.00 0.00 0.00 99 1013.5
20260508035833 11 30 0.0 1.6 0.00 2.01 2.01 99 1013.3
20260508035330 12 50 0.0 1.6 0.00 2.01 2.01 99 1013.2
20260508034827 12 83 0.0 1.6 0.00 2.01 2.01 99 1013.3
20260508034324 12 81 1.6 3.2 0.00 2.01 2.01 99 1013.3
20260508033821 12 73 0.0 1.6 0.00 2.01 2.01 99 1013.4
20260508033319 11 41 0.0 1.6 0.00 2.01 2.01 99 1013.0
20260508032816 11 44 4.8 4.8 0.00 2.01 2.01 99 1013.2
20260508032314 11 67 3.2 3.2 0.00 2.01 2.01 99 1013.3
20260508031810 11 81 1.6 1.6 0.00 2.01 2.01 99 1012.9
20260508031307 11 81 0.0 1.6 0.00 2.01 2.01 99 1013.1
20260508030803 11 29 0.0 1.6 0.00 2.01 2.01 99 1013.0
20260508030301 11 49 0.0 1.6 0.00 2.01 2.01 99 1013.1
20260508025757 12 52 0.0 3.2 0.00 2.01 2.01 99 1012.4
20260508025254 12 32 4.8 4.8 0.00 2.01 2.01 99 1012.6
20260508024750 12 56 3.2 3.2 0.00 2.01 2.01 99 1012.6
20260508024247 12 34 4.8 4.8 0.00 2.01 2.01 99 1012.7
20260508023744 12 43 3.2 4.8 0.00 2.01 2.01 99 1012.7
20260508023241 12 54 3.2 4.8 0.00 2.01 2.01 99 1012.6
20260508022737 12 60 1.6 3.2 0.00 2.01 2.01 99 1012.5
20260508022234 12 51 3.2 3.2 0.00 2.01 2.01 99 1012.7
20260508021731 12 49 0.0 3.2 0.00 2.01 2.01 99 1012.5
20260508021226 12 78 1.6 3.2 0.00 2.01 2.01 99 1012.4
20260508020723 12 37 1.6 3.2 0.00 2.01 2.01 99 1012.5
20260508020221 12 52 3.2 3.2 0.00 2.01 2.01 99 1012.2
20260508015718 12 63 1.6 3.2 0.00 2.01 2.01 99 1012.2
20260508015215 12 48 4.8 4.8 0.00 2.01 2.01 99 1012.1
20260508014712 12 75 1.6 3.2 0.00 2.01 2.01 99 1012.2
20260508014208 12 69 3.2 3.2 0.00 2.01 2.01 99 1012.3
20260508013704 12 80 3.2 3.2 0.00 2.01 2.01 99 1011.9
20260508013201 12 62 3.2 3.2 0.00 2.01 2.01 99 1011.7
20260508012659 12 59 3.2 3.2 0.00 2.01 2.01 99 1011.8
20260508012155 12 70 3.2 3.2 0.00 2.01 2.01 99 1011.7
20260508011653 12 66 3.2 3.2 0.00 2.01 2.01 99 1011.5
20260508011151 12 51 4.8 4.8 0.00 2.01 2.01 99 1011.5
20260508010647 12 43 3.2 4.8 0.00 2.01 2.01 99 1011.3
20260508010145 12 47 4.8 4.8 0.00 2.01 2.01 99 1011.3
20260508005642 12 50 3.2 4.8 0.00 2.01 2.01 99 1011.1
20260508005139 12 75 3.2 4.8 0.00 2.01 2.01 99 1010.8
20260508004634 12 64 3.2 8.0 0.00 2.01 2.01 99 1010.9
20260508004131 12 41 6.4 8.0 0.00 2.01 2.01 99 1010.9
20260508003627 12 63 3.2 6.4 0.00 2.01 2.01 99 1010.7
20260508003125 12 74 4.8 8.0 0.00 2.01 2.01 99 1010.8
20260508002621 12 51 4.8 6.4 0.00 2.01 2.01 99 1010.6
20260508002119 12 66 3.2 4.8 0.00 2.01 2.01 99 1010.9
20260508001614 12 40 4.8 4.8 0.00 2.01 2.01 99 1010.8
20260508001111 12 43 3.2 4.8 0.00 2.01 2.01 99 1011.2
20260508000606 12 86 3.2 4.8 0.00 2.01 2.01 99 1010.8
20260508000104 12 61 3.2 3.2 0.18 2.01 2.01 99 1011.2
20260507235601 12 113 0.0 1.6 0.30 1.98 1.98 99 1011.0
20260507235058 12 45 4.8 4.8 0.36 1.96 1.96 99 1010.5
20260507234554 12 64 3.2 6.4 0.30 1.93 1.93 99 1010.7
20260507234051 12 40 3.2 4.8 0.48 1.88 1.88 99 1010.5
20260507233548 12 73 1.6 4.8 1.07 1.88 1.88 99 1010.5
20260507233047 12 54 3.2 8.0 1.02 1.78 1.78 99 1010.2
20260507232542 12 74 3.2 8.0 0.48 1.70 1.70 99 1010.3
20260507232040 12 21 4.8 8.0 0.00 1.60 1.60 99 1010.5
20260507231536 12 99 4.8 6.4 0.00 1.60 1.60 98 1009.8
20260507231034 12 40 6.4 6.4 0.00 1.60 1.60 98 1009.8
20260507230530 12 83 3.2 8.0 0.00 1.60 1.60 98 1009.6
20260507230027 12 61 4.8 8.0 0.00 1.60 1.60 98 1009.7
20260507225521 12 73 3.2 11.3 0.00 1.60 1.60 97 1009.5
20260507225018 13 49 1.6 8.0 0.00 1.60 1.60 98 1009.8
20260507224514 13 57 4.8 8.0 0.00 1.60 1.60 97 1009.5
20260507224011 13 33 8.0 11.3 0.00 1.60 1.60 97 1009.5
20260507223507 13 79 4.8 8.0 0.00 1.60 1.60 98 1009.8
20260507223004 13 87 3.2 6.4 0.00 1.60 1.60 98 1009.6
20260507222501 13 44 6.4 8.0 0.00 1.60 1.60 98 1009.6
20260507221957 13 50 4.8 8.0 0.00 1.60 1.60 98 1009.5
20260507221454 13 44 8.0 12.9 0.00 1.60 1.60 96 1009.6
20260507220951 13 56 4.8 11.3 0.00 1.60 1.60 96 1009.5
20260507220448 13 55 4.8 9.7 0.00 1.60 1.60 96 1009.5
20260507215945 13 41 6.4 9.7 0.00 1.60 1.60 97 1009.1
20260507215441 13 50 3.2 8.0 0.00 1.60 1.60 98 1009.4
20260507214939 13 89 4.8 6.4 0.00 1.60 1.60 97 1009.2
20260507214436 13 69 4.8 14.5 0.00 1.60 1.60 97 1009.4
20260507213932 13 102 4.8 17.7 0.00 1.60 1.60 98 1009.2
20260507213428 13 50 4.8 11.3 0.00 1.60 1.60 99 1009.1
20260507212925 13 54 3.2 6.4 0.00 1.60 1.60 99 1009.5
20260507212421 13 91 4.8 6.4 0.00 1.60 1.60 99 1009.1
20260507211918 13 65 8.0 8.0 0.00 1.60 1.60 98 1009.2
20260507211415 13 73 3.2 9.7 0.00 1.60 1.60 99 1009.1
20260507210911 13 51 8.0 11.3 0.00 1.60 1.60 98 1009.2
20260507210409 13 84 4.8 4.8 0.00 1.60 1.60 99 1009.0
20260507205905 13 20 4.8 16.1 0.00 1.60 1.60 98 1009.0
20260507205403 13 12 9.7 9.7 0.00 1.60 1.60 98 1008.7
20260507204859 13 34 8.0 12.9 0.00 1.60 1.60 98 1008.9
20260507204355 13 39 8.0 9.7 0.00 1.60 1.60 98 1008.7
20260507203853 13 13 8.0 11.3 0.00 1.60 1.60 98 1008.7
20260507203351 13 63 6.4 9.7 0.00 1.60 1.60 98 1008.6
20260507202846 13 83 4.8 8.0 0.00 1.60 1.60 99 1008.4
20260507202343 13 26 9.7 16.1 0.00 1.60 1.60 99 1008.9
20260507201839 14 69 4.8 16.1 0.00 1.60 1.60 99 1009.0
20260507201334 14 30 4.8 9.7 0.00 1.60 1.60 99 1008.9
20260507200831 14 85 3.2 8.0 0.00 1.60 1.60 99 1008.3
20260507200327 14 62 4.8 9.7 0.00 1.60 1.60 98 1008.6
20260507195823 14 126 4.8 8.0 0.00 1.60 1.60 99 1008.3
20260507195321 15 30 4.8 8.0 0.00 1.60 1.60 99 1008.4
20260507194818 14 22 8.0 9.7 0.00 1.60 1.60 99 1008.7
20260507194314 14 75 4.8 12.9 0.00 1.60 1.60 99 1008.3
20260507193810 14 48 6.4 16.1 0.00 1.60 1.60 99 1008.9
20260507193308 14 85 4.8 8.0 0.00 1.60 1.60 99 1008.8
20260507192803 14 76 4.8 16.1 0.00 1.60 1.60 99 1008.6
20260507192300 14 76 3.2 12.9 0.00 1.60 1.60 99 1008.8
20260507191756 14 41 6.4 11.3 0.00 1.60 1.60 99 1008.8
20260507191253 14 28 9.7 20.9 0.00 1.60 1.60 99 1008.6
20260507190750 14 43 4.8 16.1 0.00 1.60 1.60 99 1008.8
20260507190249 14 46 4.8 9.7 0.00 1.60 1.60 99 1008.7
20260507185747 15 8 11.3 16.1 0.00 1.60 1.60 99 1008.7
20260507185243 15 27 6.4 8.0 0.00 1.60 1.60 99 1009.1
20260507184741 15 41 4.8 11.3 0.00 1.60 1.60 99 1008.9
20260507184239 15 13 8.0 17.7 0.05 1.60 1.60 98 1008.4
20260507183735 16 18 17.7 17.7 0.05 1.60 1.60 98 1008.3
20260507183232 17 43 4.8 17.7 0.13 1.60 1.60 97 1008.0
20260507182730 18 353 11.3 14.5 0.13 1.60 1.60 96 1007.9
20260507182224 20 25 8.0 8.0 0.05 1.60 1.60 99 1007.3
20260507181722 19 55 3.2 8.0 0.05 1.57 1.57 99 1007.9
20260507181218 19 49 4.8 4.8 0.05 1.57 1.57 99 1007.9
20260507180715 19 15 4.8 12.9 0.00 1.57 1.57 98 1008.0
20260507180212 20 14 8.0 9.7 0.05 1.57 1.57 98 1008.4
20260507175707 20 47 0.0 6.4 0.13 1.57 1.57 97 1008.1
20260507175204 20 34 3.2 6.4 0.05 1.55 1.55 97 1008.2
20260507174702 20 8 6.4 8.0 0.00 1.55 1.55 96 1007.3
20260507174200 20 3 6.4 6.4 0.00 1.55 1.55 97 1008.1
20260507173657 20 38 1.6 3.2 0.00 1.55 1.55 97 1008.2
20260507173153 20 38 3.2 6.4 0.00 1.55 1.55 98 1008.0
20260507172650 20 14 6.4 6.4 0.00 1.55 1.55 99 1008.2
20260507172147 19 34 3.2 8.0 0.00 1.55 1.55 99 1008.7
20260507171647 19 26 4.8 14.5 0.00 1.55 1.55 98 1008.9
20260507171144 20 3 11.3 14.5 0.00 1.55 1.55 96 1009.2
20260507170641 20 345 3.2 4.8 0.00 1.55 1.55 97 1008.7
20260507170139 20 22 0.0 3.2 0.00 1.55 1.55 98 1008.3
20260507165634 20 44 0.0 3.2 0.00 1.55 1.55 97 1008.0
20260507165131 20 28 0.0 4.8 0.00 1.55 1.55 97 1007.9
20260507164626 21 60 1.6 8.0 0.00 1.55 1.55 95 1007.7
20260507164124 21 46 1.6 3.2 0.00 1.55 1.55 96 1007.6
20260507163621 21 14 3.2 4.8 0.00 1.55 1.55 96 1007.6
20260507163119 21 322 0.0 1.6 0.00 1.55 1.55 95 1007.6
20260507162614 21 48 3.2 3.2 0.00 1.55 1.55 99 1007.8
20260507162111 20 44 0.0 1.6 0.05 1.55 1.55 99 1007.9
20260507161607 20 71 0.0 3.2 0.05 1.55 1.55 99 1008.0
20260507161104 20 329 0.0 3.2 0.00 1.55 1.55 99 1008.2
20260507160600 20 37 0.0 3.2 0.05 1.55 1.55 99 1008.8
20260507160057 20 39 0.0 3.2 0.05 1.55 1.55 99 1008.7
20260507155552 20 315 0.0 3.2 0.13 1.52 1.52 99 1009.4
20260507155049 19 35 0.0 1.6 0.13 1.52 1.52 99 1009.4
20260507154546 19 66 0.0 3.2 0.13 1.50 1.50 99 1009.5
20260507154043 19 274 0.0 1.6 0.05 1.50 1.50 99 1009.8
20260507153540 19 310 3.2 4.8 0.00 1.50 1.50 99 1009.9
20260507153036 19 33 1.6 4.8 0.00 1.50 1.50 99 1009.8
20260507152532 19 305 4.8 4.8 0.00 1.50 1.50 99 1009.4
20260507152029 19 321 0.0 0.0 0.00 1.50 1.50 99 1009.0
20260507151525 19 358 0.0 4.8 0.00 1.50 1.50 99 1009.1
20260507151022 19 298 3.2 3.2 0.00 1.50 1.50 99 1009.3
20260507150519 19 332 3.2 3.2 0.00 1.50 1.50 99 1008.7
20260507150015 19 39 0.0 1.6 0.00 1.50 1.50 99 1008.6
20260507145510 19 44 0.0 1.6 0.05 1.50 1.50 99 1008.7
20260507145009 19 32 3.2 3.2 0.05 1.50 1.50 99 1009.2
20260507144505 18 80 0.0 1.6 0.05 1.47 1.47 99 1009.0
20260507144002 18 48 0.0 1.6 0.05 1.47 1.47 99 1009.0
20260507143459 18 299 0.0 1.6 0.05 1.47 1.47 99 1009.4
20260507142956 18 89 0.0 0.0 0.13 1.47 1.47 99 1009.1
20260507142452 18 66 0.0 0.0 0.13 1.45 1.45 99 1009.1
20260507141949 18 58 0.0 1.6 0.05 1.45 1.45 99 1008.8
20260507141445 18 83 1.6 1.6 0.13 1.45 1.45 99 1009.2
20260507140942 18 38 0.0 1.6 0.13 1.42 1.42 99 1009.4
20260507140438 18 50 0.0 1.6 0.13 1.42 1.42 99 1009.5
20260507135936 18 50 0.0 1.6 0.23 1.42 1.42 99 1009.6
20260507135433 18 142 0.0 0.0 0.23 1.40 1.40 99 1009.3
20260507134930 18 57 0.0 1.6 0.13 1.37 1.37 99 1009.3
20260507134426 18 77 1.6 1.6 0.13 1.37 1.37 99 1009.3
20260507133922 18 55 0.0 3.2 0.30 1.35 1.35 99 1009.4
20260507133419 18 19 0.0 1.6 0.43 1.32 1.32 99 1009.2
20260507132917 18 38 0.0 3.2 0.48 1.30 1.30 99 1009.6
20260507132413 18 334 0.0 1.6 0.23 1.24 1.24 99 1009.8
20260507131910 18 315 0.0 3.2 0.05 1.22 1.22 99 1009.9
20260507131407 18 322 1.6 3.2 0.05 1.22 1.22 99 1010.0
20260507130904 18 317 3.2 3.2 0.05 1.19 1.19 99 1009.8
20260507130401 18 327 0.0 0.0 0.05 1.19 1.19 99 1009.7
20260507125859 18 336 1.6 3.2 0.00 1.19 1.19 99 1009.8
20260507125356 18 332 0.0 1.6 0.05 1.19 1.19 99 1009.8
20260507124854 18 37 0.0 1.6 0.05 1.19 1.19 99 1009.5
20260507124350 18 29 0.0 1.6 0.00 1.19 1.19 99 1009.7
20260507123849 18 51 0.0 1.6 0.00 1.19 1.19 99 1009.8
20260507123345 18 48 0.0 3.2 0.00 1.19 1.19 99 1009.7
20260507122842 18 8 0.0 1.6 0.00 1.19 1.19 99 1009.7
20260507122337 17 89 0.0 1.6 0.00 1.19 1.19 99 1009.7
20260507121834 17 50 0.0 1.6 0.00 1.19 1.19 99 1009.6
20260507121329 17 50 0.0 0.0 0.05 1.19 1.19 99 1009.5
20260507120826 17 42 0.0 1.6 0.05 1.19 1.19 99 1009.5
20260507120322 17 129 0.0 4.8 0.05 1.17 1.17 99 1009.7
20260507115819 17 157 0.0 3.2 0.13 1.17 1.17 99 1009.5
20260507115315 17 345 0.0 3.2 0.05 1.17 1.17 99 1009.7
20260507114810 17 62 0.0 3.2 0.00 1.14 1.14 99 1009.7
20260507114308 17 38 0.0 1.6 0.00 1.14 1.14 99 1009.9
20260507113805 17 27 0.0 3.2 0.00 1.14 1.14 99 1009.9
20260507113302 17 315 4.8 4.8 0.00 1.14 1.14 99 1010.0
20260507112800 17 44 0.0 3.2 0.00 1.14 1.14 99 1009.6
20260507112256 17 45 1.6 3.2 0.00 1.14 1.14 99 1009.5
20260507111755 17 69 0.0 1.6 0.00 1.14 1.14 99 1009.7
20260507111250 17 129 0.0 1.6 0.00 1.14 1.14 99 1009.8
20260507110746 17 129 0.0 0.0 0.00 1.14 1.14 99 1009.8
20260507110243 17 113 0.0 1.6 0.00 1.14 1.14 99 1009.7
20260507105740 17 83 1.6 3.2 0.00 1.14 1.14 99 1009.9
20260507105236 17 69 0.0 1.6 0.00 1.14 1.14 99 1010.0
20260507104734 17 80 1.6 3.2 0.00 1.14 1.14 99 1010.2
20260507104230 17 55 0.0 1.6 0.00 1.14 1.14 99 1009.9
20260507103726 17 22 0.0 0.0 0.00 1.14 1.14 99 1009.9
20260507103223 17 69 0.0 0.0 0.00 1.14 1.14 99 1009.8
20260507102719 17 44 0.0 1.6 0.00 1.14 1.14 99 1009.6
20260507102215 17 48 0.0 3.2 0.00 1.14 1.14 99 1009.7
20260507101712 17 50 0.0 3.2 0.05 1.14 1.14 99 1009.7
20260507101207 17 55 1.6 1.6 0.13 1.14 1.14 99 1009.7
20260507100705 17 50 0.0 0.0 0.13 1.14 1.14 99 1009.7
20260507100203 17 60 0.0 1.6 0.05 1.14 1.14 99 1009.5
20260507095701 17 45 0.0 3.2 0.05 1.12 1.12 99 1009.7
20260507095157 17 44 0.0 3.2 0.05 1.12 1.12 99 1009.8
20260507094654 17 129 0.0 0.0 0.00 1.12 1.12 99 1009.7
20260507094150 17 89 0.0 1.6 0.00 1.12 1.12 99 1009.8
20260507093648 17 83 0.0 1.6 0.00 1.12 1.12 99 1009.7
20260507093146 17 135 0.0 1.6 0.05 1.12 1.12 99 1009.8
20260507092643 17 47 1.6 3.2 0.05 1.09 1.09 99 1009.8
20260507092139 17 65 1.6 3.2 0.05 1.09 1.09 99 1009.8
20260507091636 17 338 3.2 3.2 0.05 1.09 1.09 99 1009.9
20260507091132 17 63 1.6 3.2 0.00 1.09 1.09 99 1009.9
20260507090628 17 48 1.6 3.2 0.00 1.09 1.09 99 1009.8
20260507090125 17 38 1.6 1.6 0.00 1.09 1.09 99 1009.9
20260507085622 17 54 1.6 3.2 0.00 1.09 1.09 99 1009.8
20260507085119 17 44 0.0 1.6 0.00 1.09 1.09 99 1009.8
20260507084615 17 40 1.6 1.6 0.00 1.09 1.09 99 1009.9
20260507084112 17 38 0.0 3.2 0.00 1.09 1.09 99 1009.8
20260507083609 17 36 0.0 1.6 0.00 1.09 1.09 99 1009.9
20260507083106 17 50 0.0 3.2 0.00 1.09 1.09 99 1009.7
20260507082602 17 60 1.6 3.2 0.05 1.09 1.09 99 1010.0
20260507082058 17 42 1.6 3.2 0.05 1.09 1.09 99 1010.3
20260507081555 17 50 0.0 3.2 0.05 1.07 1.07 99 1010.1
20260507081052 17 341 1.6 3.2 0.13 1.07 1.07 99 1010.2
20260507080547 17 74 0.0 1.6 0.18 1.07 1.07 99 1010.4
20260507080044 17 89 0.0 3.2 0.18 1.07 1.07 99 1010.6
20260507075539 17 40 1.6 3.2 0.05 1.04 1.04 99 1010.8
20260507075036 17 14 3.2 3.2 0.00 1.04 1.04 99 1011.0
20260507074533 17 0 0.0 3.2 0.18 1.04 1.04 99 1010.4
20260507074031 17 329 1.6 3.2 0.43 1.04 1.04 99 1010.4
20260507073527 17 113 0.0 3.2 0.36 0.99 0.99 99 1010.0
20260507073024 17 60 0.0 0.0 0.30 0.97 0.97 99 1010.3
20260507072521 17 77 1.6 3.2 0.18 0.94 0.94 99 1010.2
20260507072018 17 89 0.0 1.6 0.05 0.91 0.91 99 1010.5
20260507071516 17 21 3.2 4.8 0.18 0.89 0.89 99 1010.9
20260507071012 17 30 3.2 3.2 0.36 0.89 0.89 99 1010.9
20260507070509 17 89 0.0 1.6 0.36 0.89 0.89 99 1011.0
20260507070010 17 331 3.2 4.8 0.05 0.81 0.81 99 1010.8
20260507065503 17 135 0.0 0.0 0.18 0.81 0.81 99 1010.7